GW0065 Weather Reports


time (UTC)temp
C
wind
direction
speed
KPH
gust
KPH
rain 1hr
cm
rain 24hr
cm
rain mn
cm
humidity
%
barometer
mb
20260503010104 23 89 1.6 3.2 0.00 0.00 0.00 22 1011.8
20260503005601 23 89 1.6 3.2 0.00 0.00 0.00 21 1011.8
20260503005101 23 80 1.6 3.2 0.00 0.00 0.00 21 1011.9
20260503004603 23 83 1.6 3.2 0.00 0.00 0.00 20 1011.9
20260503004056 23 85 1.6 3.2 0.00 0.00 0.00 22 1011.9
20260503003548 23 87 1.6 3.2 0.00 0.00 0.00 21 1011.8
20260503003042 22 90 1.6 3.2 0.00 0.00 0.00 22 1011.8
20260503002537 22 86 1.6 3.2 0.00 0.00 0.00 23 1011.9
20260503002037 22 70 3.2 3.2 0.00 0.00 0.00 23 1011.8
20260503001538 22 85 3.2 3.2 0.00 0.00 0.00 22 1011.9
20260503001037 23 77 1.6 3.2 0.00 0.00 0.00 20 1011.9
20260503000801 23 70 1.6 3.2 0.00 0.00 0.00 20 1011.9
20260503000036 23 68 1.6 3.2 0.00 0.00 0.00 17 1012.0
20260502235754 23 30 1.6 3.2 0.00 0.00 0.00 18 1012.0
20260502235035 23 30 3.2 6.4 0.00 0.00 0.00 19 1012.0
20260502234535 23 78 3.2 6.4 0.00 0.00 0.00 23 1012.0
20260502234035 23 72 3.2 4.8 0.00 0.00 0.00 20 1012.1
20260502233534 23 67 3.2 4.8 0.00 0.00 0.00 20 1012.1
20260502233034 23 60 3.2 4.8 0.00 0.00 0.00 18 1012.1
20260502232534 23 34 4.8 6.4 0.00 0.00 0.00 17 1012.1
20260502232033 23 46 4.8 8.0 0.00 0.00 0.00 15 1012.1
20260502231533 23 62 6.4 8.0 0.00 0.00 0.00 17 1012.2
20260502231033 23 70 4.8 8.0 0.00 0.00 0.00 18 1012.2
20260502230533 23 85 4.8 9.7 0.00 0.00 0.00 24 1012.2
20260502230300 23 65 4.8 9.7 0.00 0.00 0.00 18 1012.3
20260502225526 22 58 6.4 9.7 0.00 0.00 0.00 21 1012.3
20260502225021 23 49 6.4 12.9 0.00 0.00 0.00 21 1012.4
20260502224734 23 78 8.0 16.1 0.00 0.00 0.00 21 1012.5
20260502224009 23 57 9.7 16.1 0.00 0.00 0.00 18 1012.6
20260502223503 23 60 11.3 19.3 0.00 0.00 0.00 17 1012.6
20260502222957 23 60 12.9 19.3 0.00 0.00 0.00 16 1012.6
20260502222451 23 85 11.3 20.9 0.00 0.00 0.00 17 1012.8
20260502221948 24 84 8.0 20.9 0.00 0.00 0.00 16 1012.9
20260502221440 23 113 6.4 14.5 0.00 0.00 0.00 20 1013.0
20260502220933 24 74 8.0 16.1 0.00 0.00 0.00 18 1013.0
20260502220427 24 72 6.4 16.1 0.00 0.00 0.00 15 1013.0
20260502215920 24 84 6.4 11.3 0.00 0.00 0.00 18 1013.2
20260502215415 24 103 8.0 17.7 0.00 0.00 0.00 18 1013.3
20260502214908 25 48 8.0 17.7 0.00 0.00 0.00 15 1013.3
20260502214403 25 89 8.0 14.5 0.00 0.00 0.00 17 1013.4
20260502213857 25 102 6.4 14.5 0.00 0.00 0.00 16 1013.5
20260502213350 25 79 4.8 16.1 0.00 0.00 0.00 18 1013.5
20260502213108 24 146 6.4 16.1 0.00 0.00 0.00 17 1013.7
20260502212557 23 63 4.8 9.7 0.00 0.00 0.00 18 1013.7
20260502211833 24 60 4.8 9.7 0.00 0.00 0.00 18 1013.7
20260502211327 23 166 6.4 9.7 0.00 0.00 0.00 18 1013.8
20260502210820 23 59 9.7 20.9 0.00 0.00 0.00 19 1013.8
20260502210315 25 91 11.3 20.9 0.00 0.00 0.00 19 1014.0
20260502205809 25 192 9.7 24.1 0.00 0.00 0.00 20 1014.1
20260502205529 25 172 9.7 30.6 0.00 0.00 0.00 19 1014.1
20260502204757 25 106 6.4 29.0 0.00 0.00 0.00 20 1014.1
20260502204251 25 234 4.8 17.7 0.00 0.00 0.00 19 1014.1
20260502204009 25 242 6.4 17.7 0.00 0.00 0.00 19 1014.1
20260502203240 24 236 6.4 11.3 0.00 0.00 0.00 20 1014.2
20260502202733 25 100 6.4 19.3 0.00 0.00 0.00 20 1014.3
20260502202448 25 155 8.0 19.3 0.00 0.00 0.00 19 1014.5
20260502201721 25 166 6.4 16.1 0.00 0.00 0.00 18 1014.5
20260502201439 25 86 8.0 16.1 0.00 0.00 0.00 17 1014.5
20260502200931 25 173 8.0 19.3 0.00 0.00 0.00 17 1014.5
20260502200203 24 195 9.7 20.9 0.00 0.00 0.00 17 1014.6
20260502195657 24 178 11.3 20.9 0.00 0.00 0.00 17 1014.6
20260502195409 23 89 11.3 17.7 0.00 0.00 0.00 20 1014.6
20260502194645 23 52 9.7 17.7 0.00 0.00 0.00 20 1014.7
20260502194139 23 142 6.4 14.5 0.00 0.00 0.00 21 1014.7
20260502193851 22 36 4.8 8.0 0.00 0.00 0.00 25 1014.8
20260502193127 21 118 3.2 6.4 0.00 0.00 0.00 30 1014.9
20260502192620 21 94 3.2 4.8 0.00 0.00 0.00 32 1015.1
20260502192115 20 28 4.8 4.8 0.00 0.00 0.00 31 1015.1
20260502191609 20 27 4.8 8.0 0.00 0.00 0.00 31 1015.2
20260502191103 20 42 6.4 9.7 0.00 0.00 0.00 33 1015.2
20260502190557 19 70 8.0 11.3 0.00 0.00 0.00 37 1015.3
20260502190057 19 81 11.3 14.5 0.00 0.00 0.00 39 1015.4
20260502185557 20 52 12.9 16.1 0.00 0.00 0.00 33 1015.4
20260502185055 19 50 12.9 16.1 0.00 0.00 0.00 33 1015.5
20260502184552 19 56 12.9 14.5 0.00 0.00 0.00 35 1015.6
20260502184053 19 57 12.9 14.5 0.00 0.00 0.00 34 1015.6
20260502183552 18 56 11.3 14.5 0.00 0.00 0.00 36 1015.8
20260502183313 18 68 12.9 16.1 0.00 0.00 0.00 37 1015.8
20260502182813 18 54 12.9 16.1 0.00 0.00 0.00 35 1015.8
20260502182051 18 56 9.7 14.5 0.00 0.00 0.00 37 1015.9
20260502181551 18 61 11.3 17.7 0.00 0.00 0.00 42 1016.0
20260502181050 18 60 11.3 17.7 0.00 0.00 0.00 39 1016.1
20260502180550 18 62 11.3 16.1 0.00 0.00 0.00 38 1016.1
20260502164048 13 90 24.1 32.2 0.00 0.00 0.00 49 1016.8
20260502163548 13 92 25.7 37.0 0.00 0.00 0.00 50 1016.8
20260502163045 12 84 27.4 37.0 0.00 0.00 0.00 52 1016.8
20260502162545 12 79 27.4 33.8 0.00 0.00 0.00 52 1016.9
20260502162044 12 94 29.0 35.4 0.00 0.00 0.00 52 1016.9
20260502161545 12 78 29.0 38.6 0.00 0.00 0.00 51 1016.9
20260502161045 12 83 27.4 38.6 0.00 0.00 0.00 54 1016.9
20260502160545 12 81 29.0 38.6 0.00 0.00 0.00 54 1016.9
20260502160311 11 91 30.6 38.6 0.00 0.00 0.00 56 1016.9
20260502152305 10 83 33.8 43.5 0.00 0.00 0.00 56 1016.9
20260502151805 10 105 33.8 43.5 0.00 0.00 0.00 57 1016.7
20260502151040 10 86 33.8 41.8 0.00 0.00 0.00 56 1016.8
20260502150541 10 96 35.4 43.5 0.00 0.00 0.00 57 1016.8
20260502150300 10 88 35.4 43.5 0.00 0.00 0.00 57 1016.9
20260502130534 8 62 33.8 41.8 0.00 0.00 0.00 61 1016.5
20260502130252 9 94 35.4 45.1 0.00 0.00 0.00 60 1016.4
20260502123530 9 83 32.2 43.5 0.00 0.00 0.00 60 1016.4
20260502123030 9 91 32.2 43.5 0.00 0.00 0.00 61 1016.5
20260502122531 9 76 33.8 45.1 0.00 0.00 0.00 61 1016.4
20260502122031 9 81 33.8 46.7 0.00 0.00 0.00 60 1016.4
20260502121530 9 94 33.8 46.7 0.00 0.00 0.00 61 1016.3
20260502121029 9 80 35.4 46.7 0.00 0.00 0.00 62 1016.1
20260502120754 9 79 35.4 46.7 0.00 0.00 0.00 60 1016.4
20260502115518 9 89 33.8 43.5 0.00 0.00 0.00 60 1016.4
20260502115019 9 88 33.8 43.5 0.00 0.00 0.00 59 1016.5
20260502114518 9 86 32.2 43.5 0.00 0.00 0.00 58 1016.5
20260502114018 10 57 32.2 41.8 0.00 0.00 0.00 60 1016.5
20260502113518 10 56 33.8 41.8 0.00 0.00 0.00 58 1016.5
20260502113018 10 94 33.8 45.1 0.00 0.00 0.00 58 1016.4
20260502112735 10 94 32.2 45.1 0.00 0.00 0.00 58 1016.5
20260502112018 10 51 32.2 40.2 0.00 0.00 0.00 57 1016.5
20260502111741 10 92 30.6 40.2 0.00 0.00 0.00 58 1016.5
20260502111019 10 81 32.2 43.5 0.00 0.00 0.00 56 1016.6
20260502110518 10 70 32.2 49.9 0.00 0.00 0.00 57 1016.5
20260502110018 10 85 32.2 49.9 0.00 0.00 0.00 57 1016.6
20260502105737 10 86 32.2 45.1 0.00 0.00 0.00 56 1016.6
20260502105020 10 71 32.2 43.5 0.00 0.00 0.00 57 1016.6
20260502104519 10 77 32.2 46.7 0.00 0.00 0.00 58 1016.7
20260502104238 10 79 33.8 46.7 0.00 0.00 0.00 58 1016.5
20260502103512 10 86 33.8 45.1 0.00 0.00 0.00 59 1016.5
20260502103005 10 79 33.8 45.1 0.00 0.00 0.00 58 1016.4
20260502102458 10 64 32.2 45.1 0.00 0.00 0.00 59 1016.5
20260502101953 10 77 32.2 45.1 0.00 0.00 0.00 57 1016.5
20260502101707 10 77 32.2 41.8 0.00 0.00 0.00 59 1016.7
20260502100941 10 94 32.2 41.8 0.00 0.00 0.00 58 1016.7
20260502100654 10 72 32.2 41.8 0.00 0.00 0.00 57 1016.6
20260502100150 10 83 32.2 41.8 0.00 0.00 0.00 58 1016.6
20260502090829 11 81 29.0 38.6 0.00 0.00 0.00 55 1016.8
20260502090549 11 56 29.0 38.6 0.00 0.00 0.00 55 1016.8
20260502071111 12 86 29.0 37.0 0.00 0.00 0.00 50 1017.0
20260502070613 12 80 29.0 37.0 0.00 0.00 0.00 51 1017.0
20260502070331 12 72 27.4 37.0 0.00 0.00 0.00 49 1016.9
20260502065610 12 94 25.7 35.4 0.00 0.00 0.00 48 1016.9
20260502065110 12 89 25.7 35.4 0.00 0.00 0.00 48 1017.0
20260502064610 12 82 25.7 35.4 0.00 0.00 0.00 50 1016.9
20260502063610 13 79 25.7 33.8 0.00 0.00 0.00 49 1016.9
20260502063110 12 72 25.7 37.0 0.00 0.00 0.00 49 1016.9
20260502062611 12 57 27.4 37.0 0.00 0.00 0.00 50 1016.9
20260502062111 13 74 27.4 37.0 0.00 0.00 0.00 48 1016.8
20260502061610 13 76 27.4 35.4 0.00 0.00 0.00 48 1016.8
20260502061108 13 80 27.4 35.4 0.00 0.00 0.00 48 1016.7
20260502060608 13 89 27.4 35.4 0.00 0.00 0.00 51 1016.7
20260502060107 13 86 25.7 35.4 0.00 0.00 0.00 47 1016.7
20260502055606 13 77 25.7 35.4 0.00 0.00 0.00 48 1016.7
20260502055339 13 82 27.4 37.0 0.00 0.00 0.00 47 1016.8
20260502054602 13 87 25.7 37.0 0.00 0.00 0.00 47 1016.8
20260502054102 13 73 25.7 35.4 0.00 0.00 0.00 48 1016.8
20260502053826 13 79 25.7 35.4 0.00 0.00 0.00 46 1016.7
20260502052602 13 58 22.5 30.6 0.00 0.00 0.00 46 1016.8
20260502052102 13 58 22.5 33.8 0.00 0.00 0.00 46 1016.8
20260502051602 13 72 24.1 33.8 0.00 0.00 0.00 46 1016.8
20260502051101 14 71 20.9 30.6 0.00 0.00 0.00 44 1016.8
20260502050823 14 78 20.9 29.0 0.00 0.00 0.00 45 1016.7
20260502050057 14 75 19.3 27.4 0.00 0.00 0.00 44 1016.8
20260502045558 14 64 20.9 29.0 0.00 0.00 0.00 45 1016.8
20260502045058 14 69 20.9 29.0 0.00 0.00 0.00 44 1016.7
20260502044820 15 77 19.3 27.4 0.00 0.00 0.00 43 1016.7
20260502044058 15 77 17.7 27.4 0.00 0.00 0.00 40 1016.8
20260502043558 15 51 16.1 24.1 0.00 0.00 0.00 43 1016.8
20260502043058 15 65 14.5 20.9 0.00 0.00 0.00 43 1016.8
20260502042558 14 86 14.5 20.9 0.00 0.00 0.00 50 1016.8
20260502042058 15 51 12.9 20.9 0.00 0.00 0.00 46 1016.8
20260502041558 14 68 12.9 19.3 0.00 0.00 0.00 44 1016.7
20260502041058 14 58 12.9 17.7 0.00 0.00 0.00 50 1016.6
20260502040557 14 58 8.0 17.7 0.00 0.00 0.00 46 1016.7
20260502040057 15 77 4.8 9.7 0.00 0.00 0.00 45 1016.6
20260502035555 15 46 4.8 9.7 0.00 0.00 0.00 44 1016.6
20260502035056 14 148 4.8 9.7 0.00 0.00 0.00 44 1016.6
20260502034555 13 77 3.2 8.0 0.00 0.00 0.00 51 1016.5
20260502034054 13 35 3.2 8.0 0.00 0.00 0.00 53 1016.4
20260502033552 13 27 1.6 4.8 0.00 0.00 0.00 54 1016.3
20260502033310 13 111 3.2 6.4 0.00 0.00 0.00 52 1016.3
20260502032550 13 82 3.2 6.4 0.00 0.00 0.00 50 1016.3
20260502032049 13 75 4.8 6.4 0.00 0.00 0.00 49 1016.1
20260502031548 14 57 4.8 6.4 0.00 0.00 0.00 44 1016.0
20260502031041 14 77 4.8 8.0 0.00 0.00 0.00 42 1015.9
20260502030534 15 98 4.8 8.0 0.00 0.00 0.00 43 1015.9
20260502030028 15 88 3.2 8.0 0.00 0.00 0.00 39 1015.8
20260502025744 15 92 4.8 8.0 0.00 0.00 0.00 41 1015.9
20260502025019 16 58 3.2 8.0 0.00 0.00 0.00 39 1015.9
20260502024515 16 99 4.8 0.0 0.00 0.00 0.00 39 1015.8
20260502024143 16 111 3.2 6.4 0.00 0.00 0.00 40 1015.8
20260502023641 16 75 4.8 8.0 0.00 0.00 0.00 40 1015.8
20260502023141 16 113 4.8 8.0 0.00 0.00 0.00 39 1015.8
20260502022642 17 103 4.8 8.0 0.00 0.00 0.00 37 1015.8
20260502022142 17 73 3.2 6.4 0.00 0.00 0.00 37 1015.8
20260502021641 17 97 3.2 6.4 0.00 0.00 0.00 37 1015.8
20260502021400 18 101 4.8 6.4 0.00 0.00 0.00 32 1015.8
20260502020641 18 115 4.8 8.0 0.00 0.00 0.00 33 1015.8
20260502020135 19 135 4.8 8.0 0.00 0.00 0.00 29 1015.8
20260502015629 20 131 6.4 8.0 0.00 0.00 0.00 25 1015.8
20260502015123 20 146 6.4 8.0 0.00 0.00 0.00 24 1015.8
20260502014617 21 168 4.8 6.4 0.00 0.00 0.00 23 1015.8
20260502014111 21 154 4.8 4.8 0.00 0.00 0.00 22 1015.8
20260502013605 21 154 4.8 6.4 0.00 0.00 0.00 21 1015.8
20260502013058 21 162 3.2 6.4 0.00 0.00 0.00 21 1015.8
20260502012815 22 157 3.2 4.8 0.00 0.00 0.00 21 1015.9
20260502012047 22 152 1.6 4.8 0.00 0.00 0.00 20 1015.9
20260502011540 22 217 3.2 6.4 0.00 0.00 0.00 19 1015.9
20260502011034 22 258 4.8 8.0 0.00 0.00 0.00 18 1015.9
20260502010747 22 177 4.8 9.7 0.00 0.00 0.00 18 1016.0
20260502010243 22 169 4.8 12.9 0.00 0.00 0.00 18 1016.0